Overview Statistics Trail Chart Weather Telemetry Raw packets
 

This is the latest recevied weather packets stored in our database for station/object IU5JAE-13. If no packets are shown the sender has not sent any weather packets the latest 10 day(s).

<< 45 46 47 48 49 50 51 >>
Time Temp. Humidity Pressure Rain* Wind** Luminosity Snow
1788018633 26.67° C 44% 1017 hPa 0 mm - 133 W/m² -
1788018031 26.11° C 43% 1017 hPa 0 mm - 132 W/m² -
1788017428 26.11° C 41% 1017 hPa 0 mm - 215 W/m² -
1788016826 26.11° C 40% 1017 hPa 0 mm - 236 W/m² -
1788016223 26.67° C 39% 1017 hPa 0 mm - 257 W/m² -
1788015621 26.67° C 39% 1017.1 hPa 0 mm - 275 W/m² -
1788015018 26.67° C 42% 1017.1 hPa 0 mm - 293 W/m² -
1788014416 26.67° C 40% 1017.2 hPa 0 mm - 310 W/m² -
1788013834 27.78° C 40% 1017.3 hPa 0 mm - 327 W/m² -
1788013231 27.78° C 40% 1017.4 hPa 0 mm - 345 W/m² -
1788012629 27.22° C 41% 1017.4 hPa 0 mm - 364 W/m² -
1788012026 27.78° C 40% 1017.3 hPa 0 mm - 382 W/m² -
1788011424 27.22° C 40% 1017.4 hPa 0 mm - 404 W/m² -
1788010821 28.89° C 38% 1017.5 hPa 0 mm - 426 W/m² -
1788010219 27.78° C 38% 1017.7 hPa 0 mm - 451 W/m² -
1788009620 28.33° C 36% 1017.8 hPa 0 mm - 477 W/m² -
1788009034 27.78° C 38% 1017.8 hPa 0 mm - 503 W/m² -
1788008432 27.22° C 38% 1017.7 hPa 0 mm - 528 W/m² -
1788007829 27.78° C 38% 1017.7 hPa 0 mm - 549 W/m² -
1788007227 27.78° C 39% 1017.8 hPa 0 mm - 569 W/m² -
1788006624 28.33° C 40% 1018 hPa 0 mm - 586 W/m² -
1788006022 27.78° C 38% 1018 hPa 0 mm - 601 W/m² -
1788005420 27.78° C 41% 1017.9 hPa 0 mm - 612 W/m² -
1788004817 27.78° C 41% 1017.9 hPa 0 mm - 621 W/m² -
1788004235 27.22° C 39% 1018 hPa 0 mm - 627 W/m² -

* Rain latest hour (hover to see other rain measurements)
** Current wind speed in m/s (hover to see current wind gust speed)